TimeMST,TemperatureF,Dew PointF,Humidity,Sea Level PressureIn,VisibilityMPH,Wind Direction,Wind SpeedMPH,Gust SpeedMPH,PrecipitationIn,Events,Conditions,WindDirDegrees,DateUTC
12:56 AM,-11.0,-15.0,83,30.60,-9999.0,Calm,Calm,-,N/A,,Unknown,0,2013-01-05 07:56:00
1:56 AM,-11.0,-16.1,78,30.58,-9999.0,Calm,Calm,-,N/A,,Unknown,0,2013-01-05 08:56:00
2:56 AM,-11.9,-17.0,78,30.61,-9999.0,Calm,Calm,-,N/A,,Unknown,0,2013-01-05 09:56:00
3:56 AM,-14.1,-18.0,82,30.64,-9999.0,Calm,Calm,-,N/A,,Unknown,0,2013-01-05 10:56:00
4:56 AM,-13.0,-18.9,75,30.71,-9999.0,Calm,Calm,-,N/A,,Unknown,0,2013-01-05 11:56:00
5:56 AM,-15.0,-20.0,78,30.74,-9999.0,Calm,Calm,-,N/A,,Unknown,0,2013-01-05 12:56:00
6:56 AM,-14.1,-20.0,75,30.76,-9999.0,Calm,Calm,-,N/A,,Unknown,0,2013-01-05 13:56:00
7:56 AM,-16.1,-23.1,71,30.82,-9999.0,Calm,Calm,-,N/A,,Unknown,0,2013-01-05 14:56:00
8:56 AM,-13.0,-17.0,82,30.81,-9999.0,Variable,3.5,-,N/A,,Unknown,0,2013-01-05 15:56:00
9:56 AM,-2.9,-5.1,90,30.78,-9999.0,Calm,Calm,-,N/A,,Unknown,0,2013-01-05 16:56:00
10:56 AM,1.9,-2.9,80,30.74,-9999.0,East,3.5,-,N/A,,Unknown,100,2013-01-05 17:56:00
11:56 AM,1.9,-5.1,72,30.73,-9999.0,ESE,3.5,-,N/A,,Unknown,110,2013-01-05 18:56:00
12:56 PM,8.1,-0.9,67,30.68,-9999.0,Calm,Calm,-,N/A,,Unknown,0,2013-01-05 19:56:00
1:56 PM,10.9,1.0,64,30.64,-9999.0,Calm,Calm,-,N/A,,Unknown,0,2013-01-05 20:56:00
2:56 PM,12.9,1.9,62,30.62,-9999.0,Calm,Calm,-,N/A,,Unknown,0,2013-01-05 21:56:00
3:56 PM,7.0,-0.0,73,30.69,-9999.0,Calm,Calm,-,N/A,,Unknown,0,2013-01-05 22:56:00
4:56 PM,5.0,-0.0,80,30.69,-9999.0,Calm,Calm,-,N/A,,Unknown,0,2013-01-05 23:56:00
5:56 PM,1.0,-2.9,83,30.74,-9999.0,Calm,Calm,-,N/A,,Unknown,0,2013-01-06 00:56:00
6:56 PM,-2.9,-7.1,82,30.76,-9999.0,Calm,Calm,-,N/A,,Unknown,0,2013-01-06 01:56:00
7:56 PM,-2.9,-7.1,82,30.76,-9999.0,WNW,3.5,-,N/A,,Unknown,300,2013-01-06 02:56:00
8:56 PM,-4.0,-9.0,79,30.75,-9999.0,Calm,Calm,-,N/A,,Unknown,0,2013-01-06 03:56:00
9:56 PM,-5.1,-9.9,80,30.66,-9999.0,Calm,Calm,-,N/A,,Unknown,0,2013-01-06 04:56:00
10:56 PM,-6.0,-9.9,83,30.63,-9999.0,Calm,Calm,-,N/A,,Unknown,0,2013-01-06 05:56:00
11:56 PM,-6.0,-11.0,79,30.61,-9999.0,Calm,Calm,-,N/A,,Unknown,0,2013-01-06 06:56:00